Regional Weather Roundup
Issued by NWS

Home | Current Version | Previous Version | Graphics & Text | Print | Product List | Glossary On
Versions: 1 2 3 4 5 6 7 8 9 10 11 12 13 14 15 16 17 18 19 20 21 22 23 24 25 26 27 28 29 30 31 32 33 34 35 36 37 38 39 40 41 42 43 44 45 46 47 48 49 50
000
ASUS43 KLSX 201807
RWRMO

WEATHER SUMMARY FOR MISSOURI
NATIONAL WEATHER SERVICE SPRINGFIELD MO
100 PM CDT WED SEP 20 2017

NOTE: "FAIR" INDICATES FEW OR NO CLOUDS BELOW 12,000 FEET WITH NO
       SIGNIFICANT WEATHER AND/OR OBSTRUCTIONS TO VISIBILITY.
       CURRENT SKY AND/OR WEATHER CONDITIONS ARE NOT AVAILABLE FOR
       CHILLICOTHE AND FARMINGTON.

MOZ001>031-035>038-043-044-053-054-201900-
...NORTHERN AND WESTERN MISSOURI...

CITY           SKY/WX    TMP DP  RH WIND       PRES   REMARKS
KANSAS CTY INT PTSUNNY   84  73  69 SW17      29.81S HX  90
6HR MIN TEMP:  72; 6HR MAX TEMP:  85;

KANSAS C DTWN  CLOUDY    86  74  67 S14       29.79F HX  94
6HR MIN TEMP:  75; 6HR MAX TEMP:  86;

LEE`S SUMMIT   PTSUNNY   87  73  62 S21       29.83S HX  94
6HR MIN TEMP:  73; 6HR MAX TEMP:  87;

ST JOSEPH      CLOUDY    84  71  65 SW13      29.79R
6HR MIN TEMP:  73; 6HR MAX TEMP:  86;

CHILLICOTHE      N/A     86  73  65 S12       29.81F HX  93
6HR MIN TEMP:  71; 6HR MAX TEMP:  86;

KIRKSVILLE     SUNNY     87  72  60 S12G24    29.84F HX  93
6HR MIN TEMP:  73; 6HR MAX TEMP:  87;


$$
MOZ066>068-077>081-088>096-101>105-201900-
...SOUTHWEST MISSOURI...

CITY           SKY/WX    TMP DP  RH WIND       PRES   REMARKS
SPRINGFIELD    SUNNY     91  72  53 SW12      29.90F HX  98
6HR MIN TEMP:  71; 6HR MAX TEMP:  91;

JOPLIN         SUNNY     89  75  63 S21       29.86F HX  99
6HR MIN TEMP:  75; 6HR MAX TEMP:  89;

BRANSON        MOSUNNY   91  68  46 S10G16    29.94S HX  95

$$
MOZ032>034-039>042-045>050-055>058-069>072-201900-
...CENTRAL MISSOURI...

CITY           SKY/WX    TMP DP  RH WIND       PRES   REMARKS
COLUMBIA       SUNNY     88  73  61 S12       29.88F HX  95
6HR MIN TEMP:  71; 6HR MAX TEMP:  88;

JEFFERSON CITY SUNNY     87  72  60 SW10      29.86F HX  93
6HR MIN TEMP:  71; 6HR MAX TEMP:  87;

ROLLA          SUNNY     91  69  48 S10       29.93F HX  96
6HR MIN TEMP:  72; 6HR MAX TEMP:  91;

SEDALIA        SUNNY     89  75  63 S16       29.86F HX  99
6HR MIN TEMP:  73; 6HR MAX TEMP:  90;

WHITEMAN AFB   MOSUNNY   88  76  67 SW20G26   29.82F HX  99
WARRENSBURG    PTSUNNY   86  72  62 S16G22    29.83S HX  92
OSAGE BEACH    SUNNY     90  72  55 S13       29.89F HX  97

$$
MOZ051-052-059>065-201900-
...EAST CENTRAL MISSOURI...

CITY           SKY/WX    TMP DP  RH WIND       PRES   REMARKS
ST LOUIS INTL  MOSUNNY   91  72  53 SW9       29.91F HX  98
6HR MIN TEMP:  73; 6HR MAX TEMP:  91;

SPIRIT OF STL  MOSUNNY   91  73  55 CALM      29.89F HX  99
6HR MIN TEMP:  69; 6HR MAX TEMP:  91;

ST CHARLES     SUNNY     90  71  53 S8        29.89F HX  96
6HR MIN TEMP:  68; 6HR MAX TEMP:  91;


$$
MOZ072>076-082>087-097>100-106>115-201900-
...SOUTH CENTRAL AND SOUTHEAST MISSOURI...

CITY           SKY/WX    TMP DP  RH WIND       PRES   REMARKS
CAPE GIRARDEAU MOSUNNY   90  71  53 S12G21    29.95F HX  96
6HR MIN TEMP:  70; 6HR MAX TEMP:  91;

FARMINGTON     PTSUNNY   90  72  55 S10       29.96F HX  97
6HR MIN TEMP:  68; 6HR MAX TEMP:  90;

POPLAR BLUFF   MOSUNNY   91  71  51 S14G23    29.94F HX  97
6HR MIN TEMP:  65; 6HR MAX TEMP:  91;

WEST PLAINS    MOSUNNY   89  70  53 SW10G23   29.97S HX  94
6HR MIN TEMP:  71; 6HR MAX TEMP:  89;


$$



USA.gov is the U.S. government's official web portal to all federal, state and local government web resources and services.